CZ-6A DEB, 61389

Orbit data source: Space-Track

CZ-6A DEB, 61389 is space debris in LEO originally from a launch on Tue, 06 Aug 2024 UTC launched from the Taiyaun Space Center, China (TSC). Debris objects in space refer to the collection of defunct objects orbiting the Earth. Examples of debris include non-operational satellites, rocket bodies, and fragments generated from explosions, collisions, or faulty payload assembly.

Loading next visibility...
Identifier
61389, 2024-140XE
Orbit
LEO
Country
Flag of CNCN / PRC
Related business
Manufacturer
SAST
Mission
Spacecraft
Bus & Motor
Unknown
Mass
Unknown
Launch date (UTC)
2024-08-06 (1 year ago)
Launch vehicle
Unknown
Launch site
Taiyaun Space Center, China (TSC)
Object type
Payload
Rocket body
Debris
Shape & HBR
Unknown shape, 0.1 m
Radar Cross Section
Small (<0.1 m²)

Expand to show TLE details & history
Last TLE update: 2 days ago

TLE from 2 days ago
0 CZ-6A DEB
1 61389U 24140XE  25312.45164992  .00003733  00000-0  17035-2 0  9995
2 61389  89.0400 301.7749 0054060 189.9093 170.1037 14.20631214 60947
Epoch: 2025-11-08T10:50Z
TLE epoch observation values (Epoch: 2025-11-08T10:50:22.553Z)
Latitude
0.00003°
Longitude
91.29986°
Altitude
864.639 km
Speed
7.4 km/s
True Right ascension
20h 07m 05s
True Declination
0° 00' 00"
Sunlit
Object was in daylight at epoch
Visualization orbit readout
Latitude
Unknown
Longitude
Unknown
Altitude
Unknown
Speed
Unknown
Apparent Right ascension
Unknown
Apparent Declination
Unknown
Sunlit
N/A
Visualization observer readout
Local Sidereal Time
19:40:28
Azimuth
Unknown
Elevation
Unknown
Doppler factor
Unknown
Orbital elements
Apogee altitude
859.083 km
Perigee altitude
781.255 km
Semi-major axis
7,198.306 km
Eccentricity
0.00541
Inclination
89.04°
RAAN
301.7749°
Arg. of periapsis
189.9093°
True anomaly
170.20946°
Mean anomaly
170.1037°
Eccentric anomaly
170.15665°
Mean motion
3.55384 °/min
Orbital period
101.3 mins
BSTAR
0.0017035
Loading maneuver chart data...
Computing Atmospheric mass density...

Documentation

Showing up to 5 results
|